Auburn, CA

2:00 AM PST on November 15, 2019 (GMT -0800)
Auburn Municipal

Weather History for KAUN - June, 2019

Change the Weather History Date:

Saturday, June 1, 2019

  Actual Average Record
Temperature  
Mean Temperature 73 °F -  
Max Temperature 84 °F 80 °F 98 °F (1950)
Min Temperature 62 °F 54 °F 39 °F (1971)
Cooling Degree Days 8    
Growing Degree Days 23 (Base 50)    
Moisture  
Dew Point 52 °F    
Average Humidity 51    
Maximum Humidity 82    
Minimum Humidity 30    
Precipitation  
Precipitation 0.17 in - - ()
Sea Level Pressure  
Sea Level Pressure 29.81 in    
Wind  
Wind Speed 6 mph (East)    
Max Wind Speed 15 mph    
Max Gust Speed 17 mph    
Visibility 10 miles    
Events      
Averages and records for this station are not official NWS values.
T = Trace of Precipitation, MM = Missing Value Source: NWS Daily Summary

Daily Weather History Graph

Daily Weather History Graph

Search for Another Location

Airport or City:

Astronomy

Jun. 01, 2019 Rise Set
Actual Time 5:40 AM PDT 8:23 PM PDT
Civil Twilight 5:09 AM PDT 8:55 PM PDT
Nautical Twilight 4:30 AM PDT 9:34 PM PDT
Astronomical Twilight 3:45 AM PDT 10:19 PM PDT
Moon 4:46 AM PDT (6/1) 6:44 PM PDT (6/1)
Length of Visible Light 15h 46m
Length of Day
14h 43m
Waning Crescent, 3% of the Moon is Illuminated
Jun 1
Waning Crescent
Jun 3
New
Jun 9
First Quarter
Jun 17
Full
Jun 25
Last Quarter

Hourly Weather History & Observations

Time (PDT) Temp. Heat Index Dew Point Humidity Pressure Visibility Wind Dir Wind Speed Gust Speed Precip Events Conditions
12:15 AM 64.4 °F - 51.8 °F 64% 29.87 in 10.0 mi East 8.1 mph - N/A   Clear
12:35 AM 66.2 °F - 50.0 °F 56% 29.86 in 10.0 mi East 9.2 mph - N/A   Clear
12:55 AM 64.4 °F - 50.0 °F 59% 29.85 in 10.0 mi East 9.2 mph - N/A   Clear
1:15 AM 66.2 °F - 50.0 °F 56% 29.85 in 10.0 mi East 10.4 mph - N/A   Clear
1:35 AM 64.4 °F - 50.0 °F 59% 29.84 in 10.0 mi East 9.2 mph - N/A   Clear
1:55 AM 66.2 °F - 50.0 °F 56% 29.84 in 10.0 mi East 8.1 mph - N/A   Clear
2:15 AM 64.4 °F - 50.0 °F 59% 29.83 in 10.0 mi ENE 3.5 mph - N/A   Clear
2:35 AM 64.4 °F - 50.0 °F 59% 29.83 in 10.0 mi Calm Calm - N/A   Clear
2:55 AM 64.4 °F - 50.0 °F 59% 29.83 in 10.0 mi NE 3.5 mph - N/A   Clear
3:15 AM 62.6 °F - 50.0 °F 63% 29.82 in 10.0 mi Calm Calm - N/A   Clear
3:35 AM 64.4 °F - 50.0 °F 59% 29.82 in 10.0 mi ENE 4.6 mph - N/A   Clear
3:55 AM 66.2 °F - 48.2 °F 52% 29.81 in 10.0 mi ENE 8.1 mph - N/A   Clear
4:15 AM 64.4 °F - 48.2 °F 56% 29.81 in 10.0 mi ENE 5.8 mph - N/A   Clear
4:35 AM 66.2 °F - 48.2 °F 52% 29.80 in 10.0 mi ENE 10.4 mph - N/A   Clear
4:55 AM 64.4 °F - 48.2 °F 56% 29.80 in 10.0 mi East 6.9 mph - N/A   Clear
5:15 AM 62.6 °F - 48.2 °F 59% 29.80 in 10.0 mi East 5.8 mph - N/A   Clear
5:35 AM 64.4 °F - 48.2 °F 56% 29.80 in 10.0 mi East 4.6 mph - N/A   Clear
5:55 AM 64.4 °F - 48.2 °F 56% 29.81 in 10.0 mi ENE 5.8 mph - N/A   Clear
6:15 AM 64.4 °F - 48.2 °F 56% 29.81 in 10.0 mi East 4.6 mph - N/A   Clear
6:35 AM 66.2 °F - 48.2 °F 52% 29.80 in 10.0 mi Calm Calm - N/A   Clear
6:55 AM 66.2 °F - 50.0 °F 56% 29.81 in 10.0 mi East 6.9 mph - N/A   Clear
7:15 AM 68.0 °F - 50.0 °F 52% 29.80 in 10.0 mi East 4.6 mph - N/A   Clear
7:35 AM 69.8 °F - 50.0 °F 49% 29.80 in 10.0 mi East 10.4 mph - N/A   Clear
7:55 AM 69.8 °F - 51.8 °F 53% 29.80 in 10.0 mi East 6.9 mph 12.7 mph N/A   Clear
8:15 AM 73.4 °F - 51.8 °F 47% 29.81 in 10.0 mi Calm Calm - N/A   Clear
8:35 AM 73.4 °F - 51.8 °F 47% 29.81 in 10.0 mi Calm Calm - N/A   Clear
8:55 AM 73.4 °F - 51.8 °F 47% 29.82 in 10.0 mi Calm Calm - N/A   Clear
9:15 AM 75.2 °F - 51.8 °F 44% 29.82 in 10.0 mi Calm Calm - N/A   Clear
9:35 AM 75.2 °F - 51.8 °F 44% 29.82 in 10.0 mi Calm Calm - N/A   Clear
9:55 AM 77.0 °F - 51.8 °F 41% 29.81 in 10.0 mi Calm Calm - N/A   Clear
10:15 AM 77.0 °F - 53.6 °F 44% 29.81 in 10.0 mi Calm Calm - N/A   Clear
10:35 AM 77.0 °F - 53.6 °F 44% 29.81 in 10.0 mi Calm Calm - N/A   Clear
10:55 AM 78.8 °F - 53.6 °F 42% 29.81 in 7.0 mi SSE 6.9 mph - N/A   Clear
11:15 AM 78.8 °F - 51.8 °F 39% 29.81 in 5.0 mi Calm Calm - N/A   Haze
11:35 AM 78.8 °F - 51.8 °F 39% 29.81 in 10.0 mi Calm Calm - N/A   Clear
11:55 AM 78.8 °F - 55.4 °F 44% 29.82 in 10.0 mi WSW 8.1 mph - N/A   Clear
12:15 PM 80.6 °F 80.5 °F 55.4 °F 42% 29.82 in 10.0 mi SW 6.9 mph - N/A   Clear
12:35 PM 80.6 °F 80.5 °F 55.4 °F 42% 29.82 in 10.0 mi WSW 5.8 mph - N/A   Clear
12:55 PM 80.6 °F 80.5 °F 55.4 °F 42% 29.82 in 10.0 mi Calm Calm - N/A   Clear
1:15 PM 80.6 °F 80.5 °F 55.4 °F 42% 29.82 in 10.0 mi SSW 6.9 mph 13.8 mph N/A   Clear
1:35 PM 80.6 °F 80.3 °F 53.6 °F 39% 29.81 in 9.0 mi SW 5.8 mph - N/A   Clear
1:55 PM 82.4 °F 81.4 °F 53.6 °F 37% 29.81 in 10.0 mi Calm Calm - N/A   Clear
2:15 PM 82.4 °F - 51.8 °F 35% 29.81 in 10.0 mi South 4.6 mph - N/A   Clear
2:35 PM 82.4 °F - 51.8 °F 35% 29.80 in 10.0 mi Calm Calm - N/A   Clear
2:55 PM 84.2 °F - 51.8 °F 33% 29.80 in 10.0 mi Calm Calm - N/A   Clear
3:15 PM 82.4 °F - 50.0 °F 32% 29.79 in 10.0 mi Variable 6.9 mph - N/A   Clear
3:35 PM 82.4 °F - 48.2 °F 30% 29.79 in 10.0 mi Calm Calm - N/A   Clear
3:55 PM 82.4 °F - 51.8 °F 35% 29.78 in 10.0 mi Calm Calm - N/A   Clear
4:15 PM 82.4 °F - 51.8 °F 35% 29.77 in 10.0 mi Calm Calm - N/A   Clear
4:35 PM 84.2 °F - 51.8 °F 33% 29.77 in 10.0 mi Calm Calm - N/A   Clear
4:55 PM 84.2 °F - 51.8 °F 33% 29.77 in 10.0 mi Variable 4.6 mph - N/A   Clear
5:15 PM 82.4 °F - 50.0 °F 32% 29.77 in 10.0 mi SSW 4.6 mph - N/A   Clear
5:35 PM 82.4 °F - 51.8 °F 35% 29.77 in 10.0 mi WSW 5.8 mph - N/A   Clear
5:55 PM 82.4 °F - 50.0 °F 32% 29.77 in 10.0 mi Calm Calm - N/A   Clear
6:15 PM 82.4 °F - 50.0 °F 32% 29.77 in 10.0 mi Calm Calm - N/A   Clear
6:35 PM 82.4 °F - 51.8 °F 35% 29.77 in 10.0 mi Calm Calm - N/A   Clear
6:55 PM 82.4 °F - 50.0 °F 32% 29.77 in 9.0 mi Calm Calm - N/A   Clear
7:15 PM 82.4 °F - 48.2 °F 30% 29.78 in 10.0 mi SSE 6.9 mph - N/A   Clear
7:35 PM 80.6 °F - 50.0 °F 34% 29.79 in 10.0 mi ESE 8.1 mph - N/A   Partly Cloudy
7:55 PM 69.8 °F - 57.2 °F 64% 29.81 in 7.0 mi East 13.8 mph - 0.02 in   Mostly Cloudy
8:15 PM 66.2 °F - 57.2 °F 73% 29.81 in 9.0 mi East 15.0 mph - N/A   Overcast
8:35 PM 66.2 °F - 57.2 °F 73% 29.82 in 10.0 mi East 13.8 mph - N/A   Mostly Cloudy
8:55 PM 64.4 °F - 57.2 °F 77% 29.84 in 10.0 mi ENE 8.1 mph 15.0 mph 0.02 in   Mostly Cloudy
9:15 PM 62.6 °F - 57.2 °F 82% 29.83 in 6.0 mi East 8.1 mph - N/A   Haze
9:35 PM 62.6 °F - 57.2 °F 82% 29.84 in 10.0 mi ENE 8.1 mph 16.1 mph N/A   Overcast
9:55 PM 64.4 °F - 57.2 °F 77% 29.85 in 9.0 mi ENE 5.8 mph 15.0 mph 0.11 in   Mostly Cloudy
10:15 PM 62.6 °F - 57.2 °F 82% 29.84 in 7.0 mi East 12.7 mph - N/A   Overcast
10:35 PM 62.6 °F - 57.2 °F 82% 29.83 in 10.0 mi East 10.4 mph - N/A   Mostly Cloudy
10:55 PM 62.6 °F - 55.4 °F 77% 29.82 in 10.0 mi East 9.2 mph 17.3 mph 0.02 in   Partly Cloudy
11:15 PM 62.6 °F - 55.4 °F 77% 29.81 in 10.0 mi East 15.0 mph - N/A   Clear
11:35 PM 62.6 °F - 55.4 °F 77% 29.81 in 10.0 mi East 11.5 mph - N/A   Clear
11:55 PM 64.4 °F - 53.6 °F 68% 29.81 in 10.0 mi East 10.4 mph - N/A   Clear